Weather in Pezhma

Russia / Vologda Oblast     60°51′11″N   41°43′54″E
temp.,
°C
wind,
m/s
gust,
m/s
humid.,
%
clouds,
%
prec.,
mm/h
press.,
hPa
HPBL,
m
2 august, mon
mon200:00+15ssw4129945 1.9 1005431
03:00+14sw3109926 1.9 1005360
06:00+15sw279818 0.0 1006275
09:00+19sw377265 0.0 1007692
12:00+23wsw464932 0.0 10071577
15:00+25wsw353799 0.0 10061947
18:00+23ssw1155100 0.0 100611
21:00+17ese236999 0.0 100450
3 august, tue
tue300:00+16sse31287100 0.3 1003290
03:00+17sse51598100 2.4 1000509
06:00+18s51596100 0.9 999664
09:00+19ssw61278100 1.1 9991158
12:00+18ssw51072100 0.1 10021237
15:00+19sw596396 0.1 10041376
18:00+20ssw2560100 0.0 1004236
21:00+15sw26770 0.0 1005117
4 august, wed
wed400:00+13ssw311855 0.0 1006274
03:00+12sw310870 0.0 1007246
06:00+13sw310840 0.0 1008383
09:00+17w476682 0.0 10101233
12:00+19w365044 0.1 10111739
15:00+21w463512 0.1 10122329
18:00+19wnw354136 0.0 10131560
21:00+12wnw116640 0.0 101510
5 august, thu
thu500:00+13nw226099 0.0 101651
03:00+12nnw1263100 0.0 101841
06:00+12n1267100 0.0 101997
09:00+17nne12505 0.0 1019464
12:00+21n133295 0.0 10192503
15:00+19ene324088 0.0 10191176
18:00+19ene134690 0.0 1019505
21:00+13ese116423 0.0 101910
6 august, fri
fri600:00+13se116599 0.0 102015
03:00+10e117680 0.0 102010
06:00+12e11706 0.0 102152
09:00+18e1246100 0.0 1021807
12:00+17sw1254100 0.0 1022213
15:00+20e233725 0.0 10201831
18:00+18nne245345 0.0 1021417
21:00+12ene127423 0.0 102216